| time (UTC) | temp F | wind direction | speed MPH | gust MPH | rain 1hr in | rain 24hr in | rain mn in | humidity % | barometer mb |
| 20260507014638 | 67 | 269 | 1.0 | 4.0 | 0.00 | 0.02 | 0.02 | 50 | 1008.5 |
| 20260507014615 | 67 | 287 | 1.0 | 7.0 | 0.00 | 0.02 | 0.02 | 50 | 1008.5 |
| 20260507013530 | 68 | 268 | 1.0 | 4.0 | 0.00 | 0.02 | 0.02 | 49 | 1008.5 |
| 20260507013029 | 68 | 247 | 1.0 | 3.0 | 0.00 | 0.02 | 0.02 | 49 | 1008.6 |
| 20260507012529 | 68 | 247 | 1.0 | 4.0 | 0.00 | 0.02 | 0.02 | 50 | 1008.7 |
| 20260507012030 | 68 | 241 | 1.0 | 4.0 | 0.00 | 0.02 | 0.02 | 51 | 1008.8 |
| 20260507011550 | 68 | 75 | 1.0 | 6.0 | 0.00 | 0.02 | 0.02 | 51 | 1008.5 |
| 20260507011541 | 68 | 74 | 1.0 | 6.0 | 0.00 | 0.02 | 0.02 | 52 | 1008.6 |
| 20260507010831 | 69 | 122 | 1.0 | 5.0 | 0.00 | 0.02 | 0.02 | 46 | 1008.8 |
| 20260507010333 | 70 | 209 | 2.0 | 11.0 | 0.00 | 0.02 | 0.02 | 44 | 1009.0 |
| 20260507005530 | 70 | 236 | 3.0 | 11.0 | 0.00 | 0.02 | 0.02 | 38 | 1009.2 |
| 20260507005030 | 71 | 126 | 4.0 | 11.0 | 0.00 | 0.02 | 0.02 | 36 | 1008.8 |
| 20260507004530 | 71 | 320 | 4.0 | 12.0 | 0.00 | 0.02 | 0.02 | 40 | 1009.1 |
| 20260507004028 | 71 | 264 | 2.0 | 12.0 | 0.00 | 0.02 | 0.02 | 42 | 1009.0 |
| 20260507003528 | 72 | 90 | 1.0 | 3.0 | 0.00 | 0.02 | 0.02 | 41 | 1008.7 |
| 20260507003331 | 73 | 91 | 0.0 | 3.0 | 0.00 | 0.02 | 0.02 | 40 | 1008.3 |
| 20260507002529 | 73 | 91 | 0.0 | 2.0 | 0.00 | 0.02 | 0.02 | 40 | 1007.9 |
| 20260507002334 | 73 | 91 | 0.0 | 1.0 | 0.00 | 0.02 | 0.02 | 39 | 1007.7 |
| 20260507001929 | 74 | 91 | 0.0 | 2.0 | 0.00 | 0.02 | 0.02 | 38 | 1007.7 |
| 20260507001924 | 74 | 91 | 0.0 | 1.0 | 0.00 | 0.02 | 0.02 | 39 | 1007.7 |
| 20260507000530 | 74 | 91 | 0.0 | 2.0 | 0.00 | 0.02 | 0.02 | 37 | 1007.8 |
| 20260507000030 | 74 | 91 | 0.0 | 1.0 | 0.00 | 0.02 | 0.02 | 36 | 1007.8 |
| 20260506235828 | 74 | 91 | 0.0 | 0.0 | 0.00 | 0.02 | 0.02 | 37 | 1007.9 |
| 20260506235028 | 74 | 91 | 0.0 | 1.0 | 0.00 | 0.02 | 0.02 | 37 | 1007.9 |
| 20260506234530 | 74 | 91 | 0.0 | 2.0 | 0.00 | 0.02 | 0.02 | 36 | 1007.9 |
| 20260506234030 | 74 | 91 | 0.0 | 2.0 | 0.00 | 0.02 | 0.02 | 35 | 1008.2 |
| 20260506233531 | 74 | 91 | 0.0 | 2.0 | 0.00 | 0.02 | 0.02 | 35 | 1008.2 |
| 20260506233030 | 74 | 91 | 0.0 | 2.0 | 0.00 | 0.02 | 0.02 | 36 | 1008.2 |
| 20260506232639 | 74 | 93 | 1.0 | 4.0 | 0.00 | 0.02 | 0.02 | 36 | 1008.3 |
| 20260506232616 | 74 | 91 | 1.0 | 4.0 | 0.00 | 0.02 | 0.02 | 36 | 1008.3 |
| 20260506231530 | 74 | 130 | 1.0 | 4.0 | 0.00 | 0.02 | 0.02 | 36 | 1008.4 |
| 20260506231029 | 74 | 130 | 1.0 | 4.0 | 0.00 | 0.02 | 0.02 | 36 | 1008.4 |
| 20260506230523 | 74 | 201 | 1.0 | 4.0 | 0.00 | 0.02 | 0.02 | 36 | 1008.5 |
| 20260506230023 | 74 | 201 | 1.0 | 4.0 | 0.00 | 0.02 | 0.02 | 35 | 1008.6 |
| 20260506225523 | 74 | 214 | 1.0 | 4.0 | 0.00 | 0.02 | 0.02 | 35 | 1008.7 |
| 20260506225022 | 74 | 219 | 1.0 | 4.0 | 0.00 | 0.02 | 0.02 | 37 | 1008.8 |
| 20260506224522 | 74 | 215 | 1.0 | 4.0 | 0.00 | 0.02 | 0.02 | 38 | 1008.8 |
| 20260506224023 | 74 | 214 | 1.0 | 4.0 | 0.00 | 0.02 | 0.02 | 36 | 1008.9 |
| 20260506223521 | 74 | 230 | 1.0 | 3.0 | 0.00 | 0.02 | 0.02 | 36 | 1009.1 |
| 20260506223323 | 74 | 233 | 1.0 | 3.0 | 0.00 | 0.02 | 0.02 | 35 | 1009.1 |
| 20260506222520 | 74 | 232 | 1.0 | 4.0 | 0.00 | 0.02 | 0.02 | 36 | 1009.1 |
| 20260506222322 | 74 | 225 | 1.0 | 4.0 | 0.00 | 0.02 | 0.02 | 37 | 1009.2 |
| 20260506221640 | 73 | 90 | 1.0 | 3.0 | 0.00 | 0.02 | 0.02 | 36 | 1009.4 |
| 20260506221612 | 73 | 89 | 1.0 | 3.0 | 0.00 | 0.02 | 0.02 | 37 | 1009.2 |
| 20260506220823 | 72 | 86 | 1.0 | 6.0 | 0.00 | 0.02 | 0.02 | 36 | 1009.5 |
| 20260506220020 | 72 | 87 | 1.0 | 6.0 | 0.00 | 0.02 | 0.02 | 35 | 1009.6 |
| 20260506215525 | 72 | 97 | 1.0 | 3.0 | 0.00 | 0.02 | 0.02 | 37 | 1009.6 |
| 20260506215019 | 72 | 97 | 1.0 | 3.0 | 0.00 | 0.02 | 0.02 | 36 | 1009.6 |
| 20260506214512 | 72 | 97 | 1.0 | 4.0 | 0.00 | 0.02 | 0.02 | 35 | 1009.7 |
| 20260506214007 | 72 | 97 | 1.0 | 4.0 | 0.00 | 0.02 | 0.02 | 35 | 1009.9 |
| 20260506213504 | 72 | 121 | 0.0 | 4.0 | 0.00 | 0.02 | 0.02 | 37 | 1009.9 |
| 20260506213004 | 71 | 77 | 1.0 | 3.0 | 0.00 | 0.02 | 0.02 | 36 | 1009.9 |
| 20260506212805 | 71 | 77 | 1.0 | 5.0 | 0.00 | 0.02 | 0.02 | 36 | 1010.1 |
| 20260506212006 | 71 | 75 | 2.0 | 6.0 | 0.00 | 0.02 | 0.02 | 35 | 1010.1 |
| 20260506211503 | 71 | 147 | 1.0 | 6.0 | 0.00 | 0.02 | 0.02 | 35 | 1010.2 |
| 20260506211004 | 71 | 206 | 1.0 | 4.0 | 0.00 | 0.02 | 0.02 | 35 | 1010.4 |
| 20260506210504 | 70 | 258 | 1.0 | 4.0 | 0.00 | 0.02 | 0.02 | 36 | 1010.5 |
| 20260506210005 | 70 | 256 | 1.0 | 4.0 | 0.00 | 0.02 | 0.02 | 36 | 1010.5 |
| 20260506205504 | 70 | 253 | 1.0 | 4.0 | 0.00 | 0.02 | 0.02 | 37 | 1010.6 |
| 20260506205006 | 70 | 255 | 1.0 | 3.0 | 0.00 | 0.02 | 0.02 | 36 | 1010.8 |
| 20260506204759 | 70 | 255 | 1.0 | 6.0 | 0.00 | 0.02 | 0.02 | 36 | 1010.8 |
| 20260506204309 | 70 | 255 | 1.0 | 6.0 | 0.00 | 0.02 | 0.02 | 37 | 1010.9 |
| 20260506203611 | 69 | 177 | 1.0 | 5.0 | 0.00 | 0.02 | 0.02 | 37 | 1010.8 |
| 20260506203545 | 69 | 177 | 1.0 | 3.0 | 0.00 | 0.02 | 0.02 | 38 | 1010.9 |
| 20260506202503 | 69 | 177 | 1.0 | 5.0 | 0.00 | 0.02 | 0.02 | 37 | 1010.8 |
| 20260506202005 | 69 | 174 | 1.0 | 5.0 | 0.00 | 0.02 | 0.02 | 36 | 1010.8 |
| 20260506201506 | 69 | 172 | 1.0 | 5.0 | 0.00 | 0.02 | 0.02 | 35 | 1011.1 |
| 20260506201006 | 69 | 174 | 1.0 | 3.0 | 0.00 | 0.02 | 0.02 | 36 | 1011.1 |
| 20260506200504 | 69 | 172 | 1.0 | 6.0 | 0.00 | 0.02 | 0.02 | 38 | 1011.2 |
| 20260506200311 | 68 | 171 | 2.0 | 6.0 | 0.00 | 0.02 | 0.02 | 37 | 1011.2 |
| 20260506195813 | 68 | 109 | 2.0 | 5.0 | 0.00 | 0.02 | 0.02 | 37 | 1011.4 |
| 20260506195006 | 68 | 132 | 1.0 | 5.0 | 0.00 | 0.02 | 0.02 | 38 | 1011.4 |
| 20260506194502 | 68 | 68 | 1.0 | 5.0 | 0.00 | 0.02 | 0.02 | 37 | 1011.4 |
| 20260506194001 | 67 | 68 | 2.0 | 5.0 | 0.00 | 0.02 | 0.02 | 40 | 1011.6 |
| 20260506193502 | 66 | 71 | 2.0 | 5.0 | 0.00 | 0.02 | 0.02 | 39 | 1011.7 |
| 20260506193002 | 66 | 75 | 2.0 | 6.0 | 0.00 | 0.02 | 0.02 | 42 | 1011.7 |
| 20260506192504 | 65 | 177 | 2.0 | 6.0 | 0.00 | 0.02 | 0.02 | 39 | 1011.7 |
| 20260506192000 | 65 | 120 | 2.0 | 6.0 | 0.00 | 0.02 | 0.02 | 41 | 1011.8 |
| 20260506191502 | 64 | 110 | 2.0 | 6.0 | 0.00 | 0.02 | 0.02 | 41 | 1011.8 |
| 20260506191309 | 64 | 110 | 1.0 | 6.0 | 0.00 | 0.02 | 0.02 | 43 | 1011.8 |
| 20260506190805 | 63 | 109 | 1.0 | 4.0 | 0.00 | 0.02 | 0.02 | 42 | 1011.9 |
| 20260506190001 | 63 | 108 | 1.0 | 3.0 | 0.00 | 0.02 | 0.02 | 42 | 1011.9 |
| 20260506185501 | 63 | 108 | 1.0 | 3.0 | 0.00 | 0.02 | 0.02 | 43 | 1012.0 |
| 20260506185002 | 63 | 108 | 0.0 | 3.0 | 0.00 | 0.02 | 0.02 | 43 | 1012.1 |
| 20260506184553 | 63 | 107 | 0.0 | 3.0 | 0.02 | 0.02 | 0.02 | 44 | 1012.2 |
| 20260506183916 | 63 | 115 | 1.0 | 6.0 | 0.02 | 0.02 | 0.02 | 39 | 1012.5 |
| 20260506183911 | 63 | 106 | 2.0 | 4.0 | 0.02 | 0.02 | 0.02 | 40 | 1012.4 |
| 20260506182502 | 63 | 77 | 1.0 | 6.0 | 0.02 | 0.02 | 0.02 | 40 | 1012.4 |
| 20260506182001 | 63 | 156 | 2.0 | 9.0 | 0.02 | 0.02 | 0.02 | 39 | 1012.4 |
| 20260506181502 | 64 | 156 | 2.0 | 9.0 | 0.02 | 0.02 | 0.02 | 40 | 1012.4 |
| 20260506181003 | 64 | 68 | 1.0 | 4.0 | 0.02 | 0.02 | 0.02 | 38 | 1012.5 |
| 20260506180501 | 63 | 68 | 2.0 | 5.0 | 0.02 | 0.02 | 0.02 | 39 | 1012.8 |
| 20260506180001 | 63 | 133 | 1.0 | 8.0 | 0.02 | 0.02 | 0.02 | 38 | 1012.9 |
| 20260506175501 | 63 | 111 | 2.0 | 8.0 | 0.02 | 0.02 | 0.02 | 39 | 1013.0 |
| 20260506175002 | 62 | 66 | 1.0 | 5.0 | 0.02 | 0.02 | 0.02 | 41 | 1013.0 |
| 20260506174502 | 62 | 195 | 1.0 | 3.0 | 0.00 | 0.00 | 0.00 | 42 | 1013.1 |
| 20260506174005 | 62 | 171 | 0.0 | 3.0 | 0.00 | 0.00 | 0.00 | 41 | 1013.3 |
| 20260506173549 | 62 | 152 | 0.0 | 5.0 | 0.00 | 0.00 | 0.00 | 42 | 1013.4 |
| 20260506172808 | 60 | 159 | 0.0 | 2.0 | 0.00 | 0.00 | 0.00 | 42 | 1013.6 |
| 20260506172005 | 60 | 159 | 0.0 | 2.0 | 0.00 | 0.00 | 0.00 | 40 | 1013.6 |
| 20260506171758 | 60 | 159 | 0.0 | 2.0 | 0.00 | 0.00 | 0.00 | 42 | 1013.7 |
| 20260506171008 | 60 | 159 | 0.0 | 2.0 | 0.00 | 0.00 | 0.00 | 42 | 1013.7 |
| 20260506170504 | 59 | 159 | 1.0 | 4.0 | 0.00 | 0.00 | 0.00 | 44 | 1013.7 |
| 20260506170310 | 58 | 159 | 1.0 | 4.0 | 0.00 | 0.00 | 0.00 | 45 | 1013.7 |
| 20260506165507 | 58 | 161 | 0.0 | 4.0 | 0.00 | 0.00 | 0.00 | 45 | 1013.8 |
| 20260506165005 | 57 | 160 | 1.0 | 4.0 | 0.00 | 0.00 | 0.00 | 45 | 1014.0 |
| 20260506164505 | 57 | 161 | 1.0 | 4.0 | 0.00 | 0.00 | 0.00 | 45 | 1014.0 |
| 20260506164005 | 57 | 161 | 0.0 | 4.0 | 0.00 | 0.00 | 0.00 | 45 | 1014.2 |
| 20260506163618 | 57 | 160 | 0.0 | 4.0 | 0.00 | 0.00 | 0.00 | 45 | 1014.3 |
| 20260506163553 | 57 | 161 | 0.0 | 2.0 | 0.00 | 0.00 | 0.00 | 45 | 1014.3 |
| 20260506162502 | 57 | 160 | 0.0 | 4.0 | 0.00 | 0.00 | 0.00 | 45 | 1014.3 |
| 20260506162003 | 57 | 160 | 0.0 | 2.0 | 0.00 | 0.00 | 0.00 | 46 | 1014.5 |
| 20260506161500 | 57 | 160 | 0.0 | 4.0 | 0.00 | 0.00 | 0.00 | 47 | 1014.5 |
| 20260506161002 | 56 | 160 | 1.0 | 4.0 | 0.00 | 0.00 | 0.00 | 45 | 1014.6 |
| 20260506160502 | 56 | 156 | 1.0 | 3.0 | 0.00 | 0.00 | 0.00 | 44 | 1014.5 |
| 20260506160002 | 56 | 155 | 0.0 | 3.0 | 0.00 | 0.00 | 0.00 | 45 | 1014.6 |
| 20260506155502 | 56 | 155 | 1.0 | 4.0 | 0.00 | 0.00 | 0.00 | 46 | 1014.6 |
| 20260506155001 | 56 | 154 | 1.0 | 4.0 | 0.00 | 0.00 | 0.00 | 45 | 1014.5 |
| 20260506154502 | 55 | 200 | 0.0 | 3.0 | 0.00 | 0.00 | 0.00 | 47 | 1014.5 |
| 20260506154002 | 55 | 200 | 0.0 | 4.0 | 0.00 | 0.00 | 0.00 | 49 | 1014.6 |
| 20260506153502 | 54 | 201 | 0.0 | 4.0 | 0.00 | 0.00 | 0.00 | 52 | 1014.7 |
| 20260506153001 | 54 | 199 | 0.0 | 1.0 | 0.00 | 0.00 | 0.00 | 53 | 1014.7 |
| 20260506152501 | 54 | 199 | 0.0 | 2.0 | 0.00 | 0.00 | 0.00 | 53 | 1014.7 |
| 20260506152259 | 53 | 199 | 0.0 | 2.0 | 0.00 | 0.00 | 0.00 | 54 | 1014.7 |
| 20260506151501 | 53 | 198 | 0.0 | 0.0 | 0.00 | 0.00 | 0.00 | 55 | 1014.7 |
| 20260506151302 | 52 | 198 | 0.0 | 0.0 | 0.00 | 0.00 | 0.00 | 55 | 1014.6 |
| 20260506150501 | 51 | 199 | 0.0 | 0.0 | 0.00 | 0.00 | 0.00 | 59 | 1014.6 |
| 20260506150002 | 50 | 199 | 0.0 | 0.0 | 0.00 | 0.00 | 0.00 | 59 | 1014.7 |
| 20260506145500 | 50 | 199 | 0.0 | 2.0 | 0.00 | 0.00 | 0.00 | 60 | 1014.8 |
| 20260506145000 | 49 | 199 | 0.0 | 2.0 | 0.00 | 0.00 | 0.00 | 61 | 1014.8 |
| 20260506144457 | 49 | 198 | 0.0 | 0.0 | 0.00 | 0.00 | 0.00 | 60 | 1014.7 |
| 20260506143957 | 48 | 198 | 0.0 | 0.0 | 0.00 | 0.00 | 0.00 | 59 | 1014.7 |
| 20260506143457 | 48 | 199 | 0.0 | 0.0 | 0.00 | 0.00 | 0.00 | 60 | 1014.8 |
| 20260506142958 | 48 | 199 | 0.0 | 0.0 | 0.00 | 0.00 | 0.00 | 62 | 1014.8 |
| 20260506142458 | 48 | 198 | 0.0 | 0.0 | 0.00 | 0.00 | 0.00 | 61 | 1014.8 |
| 20260506141955 | 47 | 199 | 0.0 | 0.0 | 0.00 | 0.00 | 0.00 | 60 | 1014.8 |
| 20260506141456 | 47 | 198 | 0.0 | 0.0 | 0.00 | 0.00 | 0.00 | 61 | 1014.8 |
| 20260506140955 | 47 | 198 | 0.0 | 1.0 | 0.00 | 0.00 | 0.00 | 60 | 1014.8 |
| 20260506140457 | 47 | 198 | 0.0 | 1.0 | 0.00 | 0.00 | 0.00 | 60 | 1014.8 |
| 20260506135953 | 47 | 199 | 0.0 | 2.0 | 0.00 | 0.00 | 0.00 | 62 | 1014.9 |
| 20260506135453 | 46 | 198 | 0.0 | 2.0 | 0.00 | 0.00 | 0.00 | 62 | 1014.8 |
| 20260506134954 | 46 | 199 | 0.0 | 0.0 | 0.00 | 0.00 | 0.00 | 64 | 1014.8 |
| 20260506134452 | 46 | 199 | 0.0 | 0.0 | 0.00 | 0.00 | 0.00 | 64 | 1014.8 |
| 20260506134248 | 46 | 199 | 0.0 | 1.0 | 0.00 | 0.00 | 0.00 | 64 | 1014.9 |
| 20260506133451 | 46 | 199 | 0.0 | 1.0 | 0.00 | 0.00 | 0.00 | 65 | 1014.8 |
| 20260506133247 | 46 | 199 | 0.0 | 0.0 | 0.00 | 0.00 | 0.00 | 65 | 1014.8 |
| 20260506132457 | 46 | 199 | 0.0 | 0.0 | 0.00 | 0.00 | 0.00 | 65 | 1014.7 |
| 20260506131951 | 46 | 199 | 0.0 | 0.0 | 0.00 | 0.00 | 0.00 | 65 | 1014.8 |
| 20260506131450 | 46 | 199 | 0.0 | 0.0 | 0.00 | 0.00 | 0.00 | 65 | 1014.8 |
| 20260506130946 | 46 | 199 | 0.0 | 0.0 | 0.00 | 0.00 | 0.00 | 65 | 1014.8 |
| 20260506130446 | 46 | 199 | 0.0 | 3.0 | 0.00 | 0.00 | 0.00 | 64 | 1014.8 |
| 20260506125948 | 46 | 199 | 0.0 | 3.0 | 0.00 | 0.00 | 0.00 | 64 | 1014.8 |
| 20260506125446 | 46 | 199 | 0.0 | 3.0 | 0.00 | 0.00 | 0.00 | 65 | 1014.7 |
| 20260506124948 | 46 | 197 | 0.0 | 0.0 | 0.00 | 0.00 | 0.00 | 64 | 1014.8 |
| 20260506124445 | 46 | 197 | 0.0 | 0.0 | 0.00 | 0.00 | 0.00 | 64 | 1014.6 |
| 20260506123946 | 46 | 197 | 0.0 | 0.0 | 0.00 | 0.00 | 0.00 | 63 | 1014.6 |
| 20260506123446 | 46 | 197 | 0.0 | 0.0 | 0.00 | 0.00 | 0.00 | 62 | 1014.6 |
| 20260506122942 | 46 | 197 | 0.0 | 0.0 | 0.00 | 0.00 | 0.00 | 62 | 1014.5 |
| 20260506122444 | 47 | 197 | 0.0 | 0.0 | 0.00 | 0.00 | 0.00 | 62 | 1014.5 |
| 20260506121938 | 47 | 197 | 0.0 | 0.0 | 0.00 | 0.00 | 0.00 | 61 | 1014.6 |
| 20260506121737 | 47 | 197 | 0.0 | 0.0 | 0.00 | 0.00 | 0.00 | 61 | 1014.6 |
| 20260506121237 | 47 | 197 | 0.0 | 1.0 | 0.00 | 0.00 | 0.00 | 61 | 1014.3 |
| 20260506120438 | 47 | 197 | 0.0 | 1.0 | 0.00 | 0.00 | 0.00 | 61 | 1014.3 |
| 20260506120332 | 47 | 197 | 0.0 | 2.0 | 0.00 | 0.00 | 0.00 | 62 | 1014.3 |
| 20260506120327 | 47 | 197 | 0.0 | 0.0 | 0.00 | 0.00 | 0.00 | 61 | 1014.2 |
| 20260506114933 | 47 | 197 | 0.0 | 2.0 | 0.00 | 0.00 | 0.00 | 61 | 1014.3 |
| 20260506114432 | 47 | 197 | 0.0 | 0.0 | 0.00 | 0.00 | 0.00 | 61 | 1014.3 |
| 20260506113931 | 47 | 197 | 0.0 | 0.0 | 0.00 | 0.00 | 0.00 | 61 | 1014.5 |
| 20260506113432 | 47 | 197 | 0.0 | 0.0 | 0.00 | 0.00 | 0.00 | 60 | 1014.5 |
| 20260506112931 | 47 | 197 | 0.0 | 1.0 | 0.00 | 0.00 | 0.00 | 60 | 1014.5 |
| 20260506112430 | 47 | 197 | 0.0 | 1.0 | 0.00 | 0.00 | 0.00 | 61 | 1014.5 |
| 20260506111929 | 47 | 197 | 0.0 | 0.0 | 0.00 | 0.00 | 0.00 | 61 | 1014.5 |
| 20260506111430 | 47 | 197 | 0.0 | 0.0 | 0.00 | 0.00 | 0.00 | 62 | 1014.3 |
| 20260506110928 | 47 | 197 | 0.0 | 0.0 | 0.00 | 0.00 | 0.00 | 62 | 1014.3 |
| 20260506110429 | 47 | 197 | 0.0 | 0.0 | 0.00 | 0.00 | 0.00 | 61 | 1014.3 |
| 20260506105929 | 47 | 197 | 0.0 | 0.0 | 0.00 | 0.00 | 0.00 | 61 | 1014.2 |
| 20260506105724 | 47 | 197 | 0.0 | 0.0 | 0.00 | 0.00 | 0.00 | 62 | 1014.2 |
| 20260506105225 | 47 | 197 | 0.0 | 0.0 | 0.00 | 0.00 | 0.00 | 61 | 1014.2 |
| 20260506104724 | 48 | 197 | 0.0 | 0.0 | 0.00 | 0.00 | 0.00 | 62 | 1014.2 |
| 20260506103930 | 48 | 197 | 0.0 | 0.0 | 0.00 | 0.00 | 0.00 | 61 | 1014.2 |
| 20260506103430 | 48 | 197 | 0.0 | 0.0 | 0.00 | 0.00 | 0.00 | 60 | 1014.3 |
| 20260506102929 | 48 | 197 | 0.0 | 0.0 | 0.00 | 0.00 | 0.00 | 60 | 1014.2 |
| 20260506102429 | 48 | 197 | 0.0 | 0.0 | 0.00 | 0.00 | 0.00 | 60 | 1014.2 |
| 20260506102030 | 49 | 197 | 0.0 | 1.0 | 0.00 | 0.00 | 0.00 | 59 | 1014.2 |
| 20260506102008 | 49 | 197 | 0.0 | 1.0 | 0.00 | 0.00 | 0.00 | 60 | 1014.2 |
| 20260506100929 | 49 | 197 | 0.0 | 1.0 | 0.00 | 0.00 | 0.00 | 59 | 1014.1 |
| 20260506100728 | 49 | 197 | 0.0 | 1.0 | 0.00 | 0.00 | 0.00 | 60 | 1013.9 |
| 20260506095925 | 49 | 197 | 0.0 | 0.0 | 0.00 | 0.00 | 0.00 | 59 | 1014.0 |
| 20260506095424 | 49 | 197 | 0.0 | 0.0 | 0.00 | 0.00 | 0.00 | 59 | 1013.9 |
| 20260506094923 | 49 | 197 | 0.0 | 0.0 | 0.00 | 0.00 | 0.00 | 59 | 1014.1 |
| 20260506094419 | 50 | 197 | 0.0 | 1.0 | 0.00 | 0.00 | 0.00 | 59 | 1014.0 |
| 20260506093916 | 50 | 197 | 0.0 | 1.0 | 0.00 | 0.00 | 0.00 | 58 | 1014.0 |
| 20260506093416 | 50 | 197 | 0.0 | 1.0 | 0.00 | 0.00 | 0.00 | 58 | 1013.9 |
| 20260506092917 | 50 | 197 | 0.0 | 1.0 | 0.00 | 0.00 | 0.00 | 57 | 1013.9 |
| 20260506092415 | 50 | 197 | 0.0 | 0.0 | 0.00 | 0.00 | 0.00 | 57 | 1013.7 |
| 20260506091914 | 51 | 197 | 0.0 | 0.0 | 0.00 | 0.00 | 0.00 | 57 | 1013.7 |
| 20260506091410 | 51 | 197 | 0.0 | 0.0 | 0.00 | 0.00 | 0.00 | 57 | 1013.7 |
| 20260506091208 | 51 | 197 | 0.0 | 0.0 | 0.00 | 0.00 | 0.00 | 57 | 1013.7 |
| 20260506090709 | 51 | 197 | 0.0 | 1.0 | 0.00 | 0.00 | 0.00 | 56 | 1013.8 |
| 20260506085906 | 51 | 197 | 0.0 | 1.0 | 0.00 | 0.00 | 0.00 | 56 | 1013.8 |
| 20260506085408 | 51 | 197 | 0.0 | 1.0 | 0.00 | 0.00 | 0.00 | 57 | 1013.7 |
| 20260506084905 | 51 | 197 | 0.0 | 1.0 | 0.00 | 0.00 | 0.00 | 57 | 1013.7 |
| 20260506084403 | 51 | 197 | 0.0 | 0.0 | 0.00 | 0.00 | 0.00 | 57 | 1013.8 |
| 20260506083907 | 51 | 197 | 0.0 | 1.0 | 0.00 | 0.00 | 0.00 | 57 | 1013.7 |
| 20260506083707 | 51 | 197 | 0.0 | 1.0 | 0.00 | 0.00 | 0.00 | 57 | 1013.8 |
| 20260506082906 | 51 | 197 | 0.0 | 0.0 | 0.00 | 0.00 | 0.00 | 58 | 1013.7 |
| 20260506082404 | 51 | 197 | 0.0 | 0.0 | 0.00 | 0.00 | 0.00 | 57 | 1013.7 |
| 20260506082207 | 51 | 197 | 0.0 | 0.0 | 0.00 | 0.00 | 0.00 | 57 | 1013.6 |
| 20260506081404 | 51 | 197 | 0.0 | 0.0 | 0.00 | 0.00 | 0.00 | 57 | 1013.6 |
| 20260506080905 | 51 | 197 | 0.0 | 0.0 | 0.00 | 0.00 | 0.00 | 57 | 1013.6 |
| 20260506080405 | 52 | 197 | 0.0 | 1.0 | 0.00 | 0.00 | 0.00 | 56 | 1013.6 |
| 20260506073406 | 52 | 197 | 0.0 | 1.0 | 0.00 | 0.00 | 0.00 | 56 | 1013.5 |
| 20260506072903 | 53 | 197 | 0.0 | 1.0 | 0.00 | 0.00 | 0.00 | 56 | 1013.3 |
| 20260506072401 | 53 | 197 | 0.0 | 1.0 | 0.00 | 0.00 | 0.00 | 56 | 1013.3 |
| 20260506071901 | 53 | 197 | 0.0 | 1.0 | 0.00 | 0.00 | 0.00 | 55 | 1013.3 |
| 20260506071402 | 53 | 197 | 0.0 | 0.0 | 0.00 | 0.00 | 0.00 | 55 | 1013.2 |
| 20260506070903 | 53 | 197 | 0.0 | 0.0 | 0.00 | 0.00 | 0.00 | 55 | 1013.1 |
| 20260506070401 | 54 | 197 | 0.0 | 0.0 | 0.00 | 0.00 | 0.00 | 54 | 1013.1 |
| 20260506062401 | 55 | 197 | 0.0 | 1.0 | 0.00 | 0.00 | 0.00 | 51 | 1012.8 |
| 20260506061902 | 55 | 197 | 0.0 | 1.0 | 0.00 | 0.00 | 0.00 | 50 | 1012.8 |
| 20260506061400 | 56 | 197 | 0.0 | 2.0 | 0.00 | 0.00 | 0.00 | 51 | 1012.9 |
| 20260506060905 | 56 | 197 | 0.0 | 2.0 | 0.00 | 0.00 | 0.00 | 49 | 1012.8 |
| 20260506060404 | 56 | 197 | 0.0 | 2.0 | 0.00 | 0.00 | 0.00 | 49 | 1012.8 |
| 20260506051405 | 57 | 197 | 0.0 | 0.0 | 0.00 | 0.00 | 0.00 | 49 | 1012.0 |
| 20260506050905 | 57 | 197 | 0.0 | 1.0 | 0.00 | 0.00 | 0.00 | 49 | 1012.0 |
| 20260506050404 | 58 | 197 | 0.0 | 1.0 | 0.00 | 0.00 | 0.00 | 49 | 1011.9 |
| 20260506044904 | 58 | 197 | 0.0 | 1.0 | 0.00 | 0.00 | 0.00 | 45 | 1011.8 |
| 20260506044711 | 59 | 197 | 0.0 | 0.0 | 0.00 | 0.00 | 0.00 | 45 | 1011.7 |
| 20260506044209 | 59 | 197 | 0.0 | 0.0 | 0.00 | 0.00 | 0.00 | 45 | 1011.5 |
| 20260506043404 | 59 | 197 | 0.0 | 2.0 | 0.00 | 0.00 | 0.00 | 45 | 1011.5 |
| 20260506042905 | 59 | 197 | 0.0 | 2.0 | 0.00 | 0.00 | 0.00 | 44 | 1011.5 |
| 20260506042404 | 60 | 202 | 0.0 | 0.0 | 0.00 | 0.00 | 0.00 | 43 | 1011.4 |
| 20260506041905 | 60 | 202 | 0.0 | 1.0 | 0.00 | 0.00 | 0.00 | 43 | 1011.4 |
| 20260506041405 | 60 | 202 | 0.0 | 1.0 | 0.00 | 0.00 | 0.00 | 42 | 1011.4 |
| 20260506040904 | 61 | 202 | 0.0 | 0.0 | 0.00 | 0.00 | 0.00 | 41 | 1011.3 |
| 20260506040406 | 61 | 202 | 0.0 | 0.0 | 0.00 | 0.00 | 0.00 | 41 | 1011.3 |
| 20260506035906 | 61 | 202 | 0.0 | 1.0 | 0.00 | 0.00 | 0.00 | 40 | 1011.2 |
| 20260506035710 | 61 | 202 | 0.0 | 1.0 | 0.00 | 0.00 | 0.00 | 40 | 1011.2 |
| 20260506034904 | 62 | 202 | 0.0 | 0.0 | 0.00 | 0.00 | 0.00 | 40 | 1011.1 |
| 20260506034653 | 62 | 202 | 0.0 | 0.0 | 0.00 | 0.00 | 0.00 | 40 | 1011.1 |
| 20260506033905 | 63 | 201 | 0.0 | 0.0 | 0.00 | 0.00 | 0.00 | 41 | 1010.9 |
| 20260506033405 | 64 | 201 | 0.0 | 0.0 | 0.00 | 0.00 | 0.00 | 39 | 1010.9 |
| 20260506032905 | 64 | 201 | 0.0 | 0.0 | 0.00 | 0.00 | 0.00 | 39 | 1010.7 |
| 20260506032405 | 65 | 201 | 0.0 | 0.0 | 0.00 | 0.00 | 0.00 | 39 | 1010.6 |
| 20260506031905 | 65 | 201 | 0.0 | 0.0 | 0.00 | 0.00 | 0.00 | 39 | 1010.5 |
| 20260506031403 | 66 | 201 | 0.0 | 0.0 | 0.00 | 0.00 | 0.00 | 38 | 1010.5 |
| 20260506030903 | 67 | 201 | 0.0 | 0.0 | 0.00 | 0.00 | 0.00 | 38 | 1010.5 |
| 20260506030404 | 67 | 201 | 0.0 | 0.0 | 0.00 | 0.00 | 0.00 | 38 | 1010.5 |
| 20260506025904 | 68 | 201 | 0.0 | 0.0 | 0.00 | 0.00 | 0.00 | 37 | 1010.4 |
| 20260506025405 | 69 | 201 | 0.0 | 0.0 | 0.00 | 0.00 | 0.00 | 36 | 1010.3 |
| 20260506024903 | 70 | 201 | 0.0 | 0.0 | 0.00 | 0.00 | 0.00 | 33 | 1010.3 |
| 20260506024406 | 71 | 201 | 0.0 | 0.0 | 0.00 | 0.00 | 0.00 | 32 | 1010.2 |
| 20260506023904 | 71 | 201 | 0.0 | 2.0 | 0.00 | 0.00 | 0.00 | 33 | 1010.2 |
| 20260506023404 | 72 | 201 | 0.0 | 2.0 | 0.00 | 0.00 | 0.00 | 29 | 1010.2 |
| 20260506022905 | 72 | 201 | 0.0 | 2.0 | 0.00 | 0.00 | 0.00 | 26 | 1010.1 |
| 20260506022404 | 72 | 201 | 0.0 | 2.0 | 0.00 | 0.00 | 0.00 | 26 | 1010.1 |
| 20260506021904 | 73 | 201 | 0.0 | 1.0 | 0.00 | 0.00 | 0.00 | 26 | 1010.0 |
| 20260506021656 | 73 | 201 | 0.0 | 1.0 | 0.00 | 0.00 | 0.00 | 27 | 1010.0 |
| 20260506020903 | 73 | 201 | 0.0 | 1.0 | 0.00 | 0.00 | 0.00 | 26 | 1010.0 |
| 20260506020403 | 73 | 201 | 0.0 | 2.0 | 0.00 | 0.00 | 0.00 | 26 | 1010.0 |
| 20260506015907 | 73 | 201 | 0.0 | 2.0 | 0.00 | 0.00 | 0.00 | 26 | 1010.0 |
| 20260506015511 | 73 | 198 | 0.0 | 3.0 | 0.00 | 0.00 | 0.00 | 25 | 1010.1 |
| 20260506015447 | 73 | 199 | 0.0 | 3.0 | 0.00 | 0.00 | 0.00 | 27 | 1010.0 |